Weather History for Denver, CO

Change the Weather History Date:

Tuesday, November 6, 2012

  Actual Average (KDEN) Record (KDEN)
Temperature  
Mean Temperature 52 °F 43 °F  
Max Temperature 64 °F 57 °F 79 °F (1934)
Min Temperature 41 °F 29 °F 10 °F (1889)
Degree Days  
Heating Degree Days 12 22  
Month to date heating degree days 128  
Since 1 July heating degree days 709  
Cooling Degree Days 0 0  
Month to date cooling degree days 0  
Year to date cooling degree days 769  
Growing Degree Days 2 (Base 50)    
Moisture  
Dew Point 31 °F    
Average Humidity 51    
Maximum Humidity 70    
Minimum Humidity 30    
Precipitation  
Precipitation 0.00 in 0.02 in 0.28 in (1990)
Month to date precipitation 0.17  
Year to date precipitation 13.51  
Snow  
Snow 0.00 in - - ()
Month to date snowfall  
Since 1 July snowfall  
Since 1 September snowfall  
Snow Depth -    
Sea Level Pressure  
Sea Level Pressure 30.23 in    
Wind  
Wind Speed 8 mph (SSW)    
Max Wind Speed 12 mph    
Max Gust Speed -    
Visibility 10 miles    
Events      
T = Trace of Precipitation, MM = Missing Value Source: NWS Daily Summary

Daily Weather History Graph

Daily Weather History Graph

Search for Another Location

Airport:

Trip Planner

Search our weather history database for the weather conditions in past years. The results will help you decide how hot, cold, wet, or windy it might be!

Date:

Astronomy

Nov. 06, 2012 Rise Set
Actual Time 6:33 AM MST 4:49 PM MST
Civil Twilight 6:04 AM MST 5:18 PM MST
Nautical Twilight 5:32 AM MST 5:50 PM MST
Astronomical Twilight 5:00 AM MST 6:22 PM MST
Moon 11:31 PM MST (11/6) 12:26 PM MST (11/6)
Length of Visible Light 11h 13m
Length of Day
10h 16m
Waning Gibbous, 52% of the Moon is Illuminated
Nov 6
Waning Gibbous
Nov 6
Last Quarter
Nov 13
New
Nov 20
First Quarter
Nov 28
Full

Hourly Weather History & Observations

Time (MST) Temp. Windchill Dew Point Humidity Pressure Visibility Wind Dir Wind Speed Gust Speed Precip Events Conditions
12:18 AM 50.0 °F - 30.2 °F 47% 30.19 in 10.0 mi SW 9.2 mph - N/A   Clear
12:39 AM 50.0 °F - 30.2 °F 47% 30.20 in 10.0 mi SW 9.2 mph - N/A   Clear
12:59 AM 50.0 °F - 30.2 °F 47% 30.20 in 10.0 mi WSW 8.1 mph - N/A   Clear
1:19 AM 50.0 °F - 30.2 °F 47% 30.21 in 10.0 mi SW 8.1 mph - N/A   Clear
1:39 AM 50.0 °F - 30.2 °F 47% 30.21 in 10.0 mi SW 8.1 mph - N/A   Clear
1:59 AM 50.0 °F - 30.2 °F 47% 30.22 in 10.0 mi SW 8.1 mph - N/A   Clear
2:19 AM 50.0 °F - 30.2 °F 47% 30.22 in 10.0 mi SW 9.2 mph - N/A   Clear
2:39 AM 50.0 °F - 30.2 °F 47% 30.22 in 10.0 mi SW 8.1 mph - N/A   Clear
2:59 AM 50.0 °F - 30.2 °F 47% 30.22 in 10.0 mi SW 5.8 mph - N/A   Clear
3:19 AM 46.4 °F 42.4 °F 30.2 °F 53% 30.21 in 10.0 mi SW 8.1 mph - N/A   Clear
3:39 AM 48.2 °F - 30.2 °F 50% 30.22 in 10.0 mi SSW 8.1 mph - N/A   Clear
3:59 AM 44.6 °F 41.4 °F 30.2 °F 57% 30.22 in 10.0 mi WSW 5.8 mph - N/A   Clear
4:19 AM 48.2 °F - 30.2 °F 50% 30.23 in 10.0 mi WSW 9.2 mph - N/A   Clear
4:39 AM 46.4 °F 41.9 °F 30.2 °F 53% 30.23 in 10.0 mi SW 9.2 mph - N/A   Clear
4:59 AM 48.2 °F - 30.2 °F 50% 30.23 in 10.0 mi SW 6.9 mph - N/A   Clear
5:19 AM 48.2 °F - 30.2 °F 50% 30.25 in 10.0 mi SW 8.1 mph - N/A   Clear
5:39 AM 46.4 °F 42.4 °F 30.2 °F 53% 30.24 in 10.0 mi SW 8.1 mph - N/A   Clear
5:59 AM 46.4 °F 42.4 °F 30.2 °F 53% 30.25 in 10.0 mi WSW 8.1 mph - N/A   Clear
6:19 AM 48.2 °F - 30.2 °F 50% 30.26 in 10.0 mi SW 5.8 mph - N/A   Clear
6:38 AM 42.8 °F 39.3 °F 30.2 °F 61% 30.26 in 10.0 mi SSW 5.8 mph - N/A   Clear
6:51 AM 41.0 °F 36.4 °F 30.2 °F 65% 30.27 in 10.0 mi SSW 6.9 mph - N/A   Clear
7:47 AM 48.2 °F - 35.6 °F 62% 30.28 in 50.0 mi South 3.5 mph - N/A   Clear
8:48 AM 55.4 °F - 35.6 °F 47% 30.31 in 50.0 mi East 11.5 mph - N/A   Partly Cloudy
10:48 AM 59.0 °F - 33.8 °F 39% 30.30 in 50.0 mi ENE 8.1 mph - N/A   Partly Cloudy
11:52 AM 60.8 °F - 33.8 °F 36% 30.27 in 50.0 mi ESE 6.9 mph - N/A   Partly Cloudy
12:48 PM 62.6 °F - 33.8 °F 34% 30.24 in 50.0 mi ESE 9.2 mph - N/A   Partly Cloudy
1:48 PM 64.4 °F - 32.0 °F 30% 30.22 in 50.0 mi East 6.9 mph - N/A   Partly Cloudy
2:48 PM 64.4 °F - 32.0 °F 30% 30.21 in 50.0 mi ENE 9.2 mph - N/A   Partly Cloudy
3:48 PM 62.6 °F - 33.8 °F 34% 30.22 in 50.0 mi East 11.5 mph - N/A   Partly Cloudy
9:19 PM 46.4 °F 41.5 °F 32.0 °F 57% 30.22 in 10.0 mi SSW 10.4 mph - N/A   Clear
9:39 PM 46.4 °F 41.5 °F 32.0 °F 57% 30.22 in 10.0 mi SSW 10.4 mph - N/A   Clear
9:59 PM 48.2 °F - 32.0 °F 54% 30.21 in 10.0 mi SSW 9.2 mph - N/A   Clear
10:19 PM 42.8 °F 37.5 °F 32.0 °F 66% 30.20 in 10.0 mi SSW 9.2 mph - N/A   Clear
10:38 PM 42.8 °F 37.5 °F 32.0 °F 66% 30.20 in 10.0 mi South 9.2 mph - N/A   Clear
10:59 PM 42.8 °F 37.0 °F 32.0 °F 66% 30.20 in 10.0 mi South 10.4 mph - N/A   Clear
11:19 PM 42.8 °F 37.5 °F 32.0 °F 66% 30.20 in 10.0 mi SSW 9.2 mph - N/A   Clear
11:39 PM 41.0 °F 36.4 °F 32.0 °F 70% 30.20 in 10.0 mi South 6.9 mph - N/A   Clear
11:59 PM 41.0 °F 35.8 °F 32.0 °F 70% 30.19 in 10.0 mi South 8.1 mph - N/A   Clear